{"data":{"norad_id":45445,"intl_designator":"2020-020X","name":"ONEWEB-0029","alt_names":[],"object_type":"PAYLOAD","status":"ACTIVE","operator":null,"country":"UK","launch_date":"2020-03-21","launch_site_code":"TYMSC","launch_vehicle":null,"mission":null,"orbit_class":"UNKNOWN","rcs_meters":null,"size_class":null,"mass_kg":null,"dimensions":null,"purposes":["comms"],"wikipedia_slug":null,"has_3d_model":false,"image_url":null,"decayed_at":null,"tle_current":{"epoch":"2026-09-20T02:15:16.595712Z","epoch_age_seconds":49575,"freshness":"FRESH","line1":"1 45445U 20020X   26263.09394208 -.00000012  00000+0 -68610-4 0  9999","line2":"2 45445  87.8969   2.2011 0002015  98.2821 261.8535 13.11418107315090","mean_motion":13.11418107,"eccentricity":0.0002015,"inclination_deg":87.8969,"raan_deg":2.2011,"arg_perigee_deg":98.2821,"mean_anomaly_deg":261.8535,"bstar":-6.861e-5,"rev_number":31509,"period_min":109.80479774632,"perigee_km":1216.1476546878,"apogee_km":1219.208768218,"semimajor_km":7595.8152114529,"source":"CELESTRAK","updated_at":"2026-09-20T09:00:44.556728Z"}}}